Location: Newark
(39.6867°N, 100.6772°W)
Time: 18:55:07
(UTC+00:00)

Vanguard 1 Rocket - Pass Details

Date: 24 October 2019
Orbit: 651 x 4226 km, 34.3° (Epoch: 18 November)

Event Time Altitude Azimuth Distance (km) Brightness Sun altitude
Rises 22:29:14 0° 284° (WNW) 7,319 12.8 13.8°
Reaches altitude 10° 22:34:05 10° 278° (W) 6,664 12.8 13.0°
Maximum altitude 22:55:11 42° 218° (SW) 5,234 12.2 9.3°
Drops below altitude 10° 23:16:49 10° 157° (SSE) 6,731 11.8 5.4°
Sets 23:21:53 0° 150° (SSE) 7,385 11.9 4.5°
